Wetbulb
33.71 33.11 32.58 32.41 32.84 32.56 31.81 31.33 30.61 30.19 29.72 29.84 28.48 29.04 30.63 31.33 32.25 32.40 31.84 31.05 29.35 29.28 29.95 29.87 30.43 32.82 33.50 33.83 34.31 34.35 34.50 35.96 35.47 41.02 44.84 47.66 46.92 48.02 51.54 55.07 56.91 58.00 55.19
34.10 33.50 32.47 32.61 32.35 31.48 31.66 31.52 31.77 30.66 30.43 29.90 27.82 27.61 28.86 30.90 32.06 32.09 30.55 29.91 28.14 28.34 28.86 29.13 30.33 33.09 32.84 33.96 33.18 33.30 34.05 36.60 37.14 39.34 40.86 44.00 45.03 44.77 48.59 52.49 57.99 58.66 58.85
34.00 32.66 32.18 31.54 31.47 30.45 31.00 31.52 31.82 30.37 29.02 28.78 27.30 26.71 27.46 29.29 31.45 32.00 30.74 29.79 28.10 28.82 29.37 28.89 30.98 32.07 31.74 32.91 32.54 32.66 34.05 35.91 37.09 38.73 38.83 40.97 43.39 42.66 44.62 58.52 59.04 59.61 60.31
33.43 32.15 31.12 30.67 31.24 30.66 31.06 31.15 31.22 30.35 28.39 27.99 26.89 27.03 27.82 29.24 31.74 31.45 29.98 28.94 28.17 28.82 29.25 29.53 31.14 32.01 31.60 32.28 32.54 32.28 33.32 33.87 35.17 36.23 36.77 37.67 38.39 41.02 42.13 52.04 57.45 59.75 55.93
32.94 31.82 31.06 31.58 31.81 31.31 31.06 30.88 30.62 29.68 28.69 28.03 26.60 26.94 27.98 29.50 31.19 30.02 28.53 27.93 27.92 28.30 28.93 29.58 31.19 34.31 35.18 34.58 33.18 32.19 32.18 32.74 33.06 33.50 33.90 34.99 34.97 35.55 36.07 39.68 51.37 51.52 48.04
32.63 32.26 32.83 32.71 32.27 30.97 30.87 30.56 29.46 28.48 27.72 27.08 25.65 25.88 27.09 29.22 32.01 31.45 29.48 27.08 27.36 27.97 28.08 29.13 30.63 32.45 32.73 34.12 34.71 34.35 33.24 31.27 31.62 31.94 31.80 32.06 32.41 33.92 35.63 39.07 44.22 53.75 49.07
32.63 33.53 33.24 32.90 31.68 30.97 31.09 29.98 28.23 27.06 26.74 25.87 25.54 25.17 25.99 28.73 31.87 30.97 30.36 27.15 26.69 27.37 28.74 28.05 29.13 31.09 31.70 31.71 33.08 33.60 33.59 33.83 30.98 33.42 31.82 31.74 32.34 33.88 36.66 41.29 43.15 42.61 41.05
32.34 32.97 33.12 32.35 31.25 30.98 30.20 28.80 27.75 27.22 26.32 25.62 24.63 24.42 24.88 28.42 31.97 30.95 29.66 26.94 26.82 27.47 28.68 28.29 28.63 29.55 30.88 30.60 30.56 31.33 31.97 32.63 32.72 34.10 34.14 34.19 34.86 35.73 37.80 40.31 42.13 41.81 40.69
31.89 32.26 32.76 32.09 30.76 30.20 28.96 27.89 27.50 26.90 26.04 25.14 25.28 24.69 24.08 24.86 31.81 31.58 28.47 26.75 26.55 26.65 27.85 29.13 28.60 28.97 31.24 31.31 29.06 29.43 30.01 30.99 34.31 35.00 35.70 35.85 35.87 35.66 35.96 38.44 37.35 40.38 37.55
32.04 32.54 32.64 32.33 30.80 28.98 28.11 27.60 27.45 26.64 27.10 25.46 24.18 23.63 25.93 24.26 29.91 31.21 29.11 26.79 25.16 25.81 26.53 27.41 30.13 29.28 30.52 30.42 27.52 27.66 27.27 28.82 30.91 31.69 32.66 34.15 35.50 35.68 35.02 34.87 34.80 34.64 35.33
33.41 33.17 32.61 31.55 29.55 28.25 27.33 27.12 26.49 25.93 24.94 23.89 23.23 22.77 23.26 24.72 25.96 30.38 30.77 27.03 25.26 24.99 25.00 25.39 26.78 29.59 30.20 29.99 29.08 27.78 27.99 29.70 29.58 30.30 30.46 31.44 33.22 34.12 34.66 35.55 34.60 33.92 33.65
33.35 32.46 31.10 30.10 29.72 27.75 25.59 25.04 25.44 24.66 22.86 21.51 21.31 21.81 22.69 23.44 27.42 29.03 30.21 29.55 28.17 25.17 24.84 25.30 26.42 28.38 28.56 29.26 27.90 29.09 29.20 28.53 28.59 28.01 28.02 28.05 28.96 30.68 33.06 34.32 35.29 34.70 35.17
32.34 31.04 29.95 28.98 26.28 24.72 23.65 22.09 21.59 22.43 22.16 20.97 20.80 20.43 21.58 23.65 24.66 28.39 28.85 28.69 27.93 25.14 25.78 26.65 27.32 27.28 27.13 26.34 28.29 28.05 27.16 26.95 26.29 25.41 25.23 26.32 28.07 30.08 31.63 32.96 33.93 35.03 34.82
31.43 29.48 28.29 26.46 24.29 22.56 22.32 21.86 19.68 19.78 21.05 21.80 21.16 20.01 20.43 23.21 25.64 25.69 24.87 24.57 26.59 25.23 24.48 23.94 24.21 25.21 24.77 25.02 25.40 25.95 26.26 26.30 25.65 24.74 24.48 26.26 27.89 27.96 28.25 30.69 30.34 31.66 31.57
31.67 29.48 27.15 26.17 24.13 22.28 21.33 20.17 21.58 21.32 20.82 20.80 19.75 21.35 17.58 20.82 26.52 28.27 27.07 25.14 24.26 24.71 23.06 22.68 21.52 21.82 21.64 22.24 23.20 23.93 24.48 25.08 24.71 25.29 24.57 24.56 25.00 25.94 26.29 28.58 28.65 28.59 27.45
30.54 28.57 25.35 23.96 23.11 22.90 22.31 21.36 26.30 25.34 26.61 26.93 26.52 24.21 25.04 29.88 30.34 29.10 28.43 27.77 26.99 25.95 22.49 20.07 19.21 19.76 20.16 20.54 20.94 21.57 23.00 23.12 23.94 24.78 24.62 24.23 23.51 23.65 24.52 25.99 27.12 26.29 25.29
30.21 29.67 26.51 24.91 23.53 22.79 22.81 23.02 19.56 22.64 26.10 26.30 27.07 28.40 29.38 29.99 29.81 28.77 27.78 27.21 26.56 24.86 20.58 20.15 19.10 19.41 19.84 20.51 20.52 21.06 20.70 22.54 23.88 23.56 23.34 23.67 23.91 23.71 23.04 23.38 24.45 25.18 24.73
30.51 30.43 28.50 26.58 25.13 24.82 22.87 23.11 22.30 19.43 20.54 15.19 24.10 25.62 28.36 28.95 28.67 28.13 26.92 25.02 21.44 22.52 21.41 20.08 19.72 20.01 19.80 19.72 20.09 19.79 20.49 21.19 21.72 22.25 22.09 22.34 22.96 22.68 21.67 21.56 22.47 22.68 23.10
29.89 27.50 27.74 26.87 26.72 26.07 26.07 24.61 23.02 21.46 19.46 18.14 20.11 22.23 22.98 28.18 27.53 27.03 25.99 21.73 20.09 20.14 20.78 20.35 20.51 20.11 19.67 19.34 18.89 19.16 19.09 19.18 20.06 20.37 20.76 20.63 21.14 21.58 20.88 21.16 21.34 21.37 22.08
28.51 27.49 27.19 27.73 26.97 26.80 26.32 25.39 24.04 22.63 21.79 21.21 19.30 18.52 21.09 21.62 16.10 13.85 19.02 17.07 19.27 20.18 20.34 20.42 20.54 20.33 19.76 19.32 18.03 16.27 17.75 17.77 18.57 19.60 19.44 19.71 19.90 21.45 20.06 20.32 20.30 20.32 21.13
29.02 28.12 27.15 27.86 27.71 27.17 26.43 25.55 24.68 22.50 21.34 20.30 17.21 16.91 18.60 20.85 19.01 18.83 19.37 17.64 19.15 19.67 18.96 19.93 19.40 19.61 19.63 18.89 18.26 16.97 15.67 13.37 17.12 17.70 18.69 19.15 16.12 19.11 20.50 20.39 20.12 20.02 20.38
30.04 29.10 28.41 27.87 27.77 27.27 26.41 26.08 25.04 24.00 23.35 21.68 18.42 18.58 16.00 19.51 20.83 20.12 19.41 16.44 15.59 20.19 20.11 19.72 18.98 19.01 18.77 17.66 16.79 13.12 12.54 10.36 12.36 14.15 16.49 17.79 18.39 18.41 19.00 18.80 18.40 18.59 18.59
30.20 29.49 28.67 27.72 28.00 24.99 26.09 26.03 25.29 24.27 23.12 22.07 19.76 18.15 17.22 16.65 18.47 19.92 19.09 13.88 17.93 17.63 18.49 18.24 17.32 16.82 18.05 17.29 17.95 16.02 13.27 11.64 12.85 11.93 11.65 13.15 16.49 16.27 15.61 17.39 17.13 16.40 16.37
30.19 29.95 29.49 28.63 27.95 27.66 26.57 24.98 25.44 23.00 24.17 21.95 18.93 18.29 17.37 16.48 15.68 17.14 15.81 12.70 14.61 11.07 11.75 12.87 15.21 15.74 15.88 11.46 15.19 16.11 15.09 11.80 13.39 12.91 12.70 13.00 14.06 15.01 15.33 15.54 16.24 14.52 14.17
30.10 29.26 28.91 28.87 28.56 26.91 25.36 26.28 25.25 24.45 23.88 21.89 20.53 20.40 19.99 19.11 18.07 16.76 16.11 15.79 16.12 13.35 14.98 12.58 13.46 14.64 13.79 12.38 12.95 13.72 10.29 7.58 9.36 7.84 12.73 15.79 12.78 11.98 12.75 13.77 12.63 14.82 12.79
31.21 30.01 29.38 28.66 27.73 26.84 26.27 25.27 24.94 24.36 23.74 22.98 21.93 20.67 21.29 21.05 21.73 18.62 17.27 17.37 16.58 15.58 15.64 15.16 15.41 14.16 13.75 14.52 14.23 11.52 4.54 6.03 5.85 5.45 9.65 15.12 11.31 10.43 10.81 11.99 13.15 12.11 13.45
MSLP
1028.85 1028.64 1028.51 1028.33 1028.23 1028.01 1027.86 1027.62 1027.28 1026.98 1026.63 1026.09 1025.47 1024.77 1023.92 1023.10 1022.26 1021.55 1020.85 1020.30 1019.51 1018.65 1017.51 1016.46 1015.22 1013.80 1012.57 1011.41 1010.65 1010.25 1009.67 1009.16 1008.64 1007.93 1007.54 1007.02 1007.31 1007.72 1008.75 1008.75 1009.32 1009.99 1011.21
1028.96 1028.84 1028.70 1028.62 1028.50 1028.37 1028.18 1027.86 1027.62 1027.36 1026.95 1026.59 1026.03 1025.35 1024.55 1023.62 1022.80 1022.13 1021.40 1020.86 1020.15 1019.16 1018.13 1016.89 1015.74 1014.46 1013.38 1012.12 1011.16 1010.44 1009.78 1009.34 1009.20 1008.52 1008.10 1007.64 1007.61 1008.10 1007.73 1007.71 1008.70 1009.56 1010.79
1029.02 1028.98 1028.90 1028.89 1028.82 1028.78 1028.54 1028.23 1027.97 1027.72 1027.53 1027.19 1026.58 1025.90 1025.11 1024.16 1023.27 1022.65 1022.17 1021.52 1020.74 1019.89 1018.87 1017.81 1016.55 1015.29 1014.03 1012.98 1011.88 1011.09 1010.46 1009.83 1009.17 1008.99 1009.14 1008.57 1008.32 1008.60 1007.58 1006.69 1008.06 1009.31 1010.50
1029.17 1029.09 1029.18 1029.18 1029.21 1029.10 1028.87 1028.62 1028.39 1028.12 1028.03 1027.75 1027.15 1026.56 1025.74 1024.74 1023.74 1023.16 1022.73 1022.16 1021.35 1020.49 1019.58 1018.50 1017.48 1016.48 1015.34 1014.19 1013.20 1012.24 1011.58 1010.78 1010.39 1009.80 1010.16 1009.64 1009.65 1009.60 1008.96 1007.74 1008.39 1009.45 1011.02
1029.31 1029.29 1029.42 1029.45 1029.46 1029.36 1029.18 1029.03 1028.86 1028.73 1028.56 1028.38 1027.79 1027.08 1026.30 1025.30 1024.50 1023.83 1023.42 1022.92 1022.09 1021.17 1020.29 1019.35 1018.52 1017.56 1016.63 1015.59 1014.32 1013.52 1012.70 1012.25 1011.76 1011.44 1011.16 1010.77 1010.69 1010.94 1010.79 1010.11 1009.27 1010.32 1012.24
1029.45 1029.53 1029.58 1029.70 1029.77 1029.68 1029.54 1029.50 1029.46 1029.35 1029.18 1028.97 1028.43 1027.82 1027.05 1026.19 1025.41 1024.69 1024.19 1023.75 1023.00 1021.99 1021.27 1020.38 1019.46 1018.48 1017.59 1016.68 1015.85 1015.01 1014.50 1013.52 1013.21 1013.05 1012.98 1013.11 1013.30 1013.27 1011.87 1010.59 1010.54 1011.20 1013.38
1029.60 1029.70 1029.90 1030.04 1030.09 1030.08 1030.03 1029.94 1029.94 1029.87 1029.69 1029.43 1029.11 1028.51 1027.86 1027.11 1026.23 1025.64 1024.97 1024.64 1024.07 1023.32 1022.38 1021.54 1020.67 1019.78 1018.84 1018.03 1017.22 1016.40 1015.62 1015.20 1015.33 1015.08 1015.06 1014.45 1014.66 1013.57 1012.63 1011.47 1011.78 1012.72 1014.32
1029.85 1030.02 1030.25 1030.39 1030.49 1030.59 1030.50 1030.46 1030.52 1030.50 1030.37 1030.18 1029.92 1029.43 1028.76 1027.89 1027.08 1026.48 1025.86 1025.40 1025.01 1024.47 1023.70 1022.92 1021.99 1021.16 1020.20 1019.39 1018.51 1017.83 1017.37 1016.84 1016.62 1016.43 1016.27 1016.17 1014.99 1014.03 1013.35 1013.32 1013.47 1014.19 1015.43
1030.10 1030.36 1030.63 1030.79 1030.98 1031.06 1031.13 1031.17 1031.18 1031.18 1031.07 1030.86 1030.64 1030.25 1029.59 1028.98 1027.81 1027.23 1026.75 1026.09 1025.56 1025.18 1024.74 1023.80 1023.01 1022.22 1021.55 1020.63 1019.85 1019.36 1018.85 1018.52 1018.06 1017.65 1017.14 1016.35 1015.24 1014.87 1014.89 1014.41 1014.85 1015.04 1016.09
1030.29 1030.63 1030.92 1031.20 1031.45 1031.60 1031.74 1031.86 1031.90 1031.85 1031.85 1031.63 1031.31 1031.01 1030.42 1029.87 1028.93 1027.88 1027.58 1027.20 1026.50 1026.11 1025.75 1025.26 1024.50 1023.80 1022.76 1021.88 1021.21 1020.87 1019.88 1020.27 1019.46 1018.54 1017.41 1016.69 1016.50 1016.56 1016.49 1016.71 1016.98 1016.89 1017.37
1030.41 1030.81 1031.28 1031.65 1031.94 1032.15 1032.34 1032.45 1032.47 1032.46 1032.45 1032.37 1032.05 1031.75 1031.33 1030.70 1030.03 1028.96 1028.30 1028.12 1027.80 1027.32 1026.85 1026.29 1025.94 1025.08 1024.19 1023.26 1022.78 1022.21 1022.28 1021.89 1021.28 1020.42 1019.82 1019.43 1019.11 1018.75 1018.83 1018.98 1019.32 1019.15 1019.08
1030.54 1031.07 1031.63 1032.13 1032.53 1032.81 1032.88 1033.03 1033.06 1033.06 1033.06 1033.09 1032.90 1032.50 1032.04 1031.54 1030.74 1030.06 1029.28 1028.96 1028.84 1028.50 1028.23 1027.87 1027.27 1026.26 1025.50 1024.86 1024.39 1024.10 1023.47 1023.00 1022.72 1022.23 1021.93 1021.89 1021.55 1021.39 1021.22 1020.97 1020.85 1020.91 1020.94
1030.76 1031.51 1032.21 1032.80 1033.07 1033.23 1033.35 1033.57 1033.74 1033.75 1033.80 1033.87 1033.69 1033.45 1033.01 1032.37 1031.69 1030.91 1030.37 1029.95 1029.68 1029.54 1029.31 1028.90 1028.33 1027.69 1027.00 1026.42 1025.85 1025.27 1024.81 1024.92 1024.31 1023.91 1024.49 1024.55 1024.19 1023.97 1023.33 1022.85 1022.55 1022.48 1022.46
1031.09 1032.02 1032.57 1032.93 1033.64 1033.77 1033.88 1034.09 1034.28 1034.47 1034.49 1034.52 1034.52 1034.35 1033.94 1033.11 1032.40 1031.89 1031.57 1031.17 1030.67 1030.43 1030.26 1030.09 1029.67 1029.01 1028.31 1028.08 1027.56 1027.28 1027.01 1026.74 1026.13 1026.62 1026.89 1026.28 1025.74 1024.86 1024.54 1024.45 1024.18 1023.97 1023.54
1031.10 1031.94 1032.75 1033.41 1033.67 1034.04 1034.57 1034.93 1035.11 1035.28 1035.23 1035.11 1035.10 1034.74 1034.28 1033.65 1033.09 1032.73 1032.30 1032.04 1031.97 1031.62 1031.22 1030.81 1030.21 1029.87 1029.90 1029.94 1029.64 1029.29 1028.93 1028.64 1028.27 1028.09 1027.78 1027.41 1026.99 1026.32 1026.29 1026.18 1025.79 1025.57 1025.37
1031.11 1031.96 1032.83 1033.36 1033.90 1034.57 1035.05 1035.36 1035.12 1035.10 1034.96 1034.93 1034.95 1034.96 1034.70 1033.86 1033.47 1033.31 1033.03 1032.79 1032.61 1032.45 1032.21 1032.31 1032.42 1032.24 1032.01 1031.86 1031.51 1031.18 1030.67 1030.16 1029.92 1029.42 1029.29 1028.88 1028.57 1028.60 1028.52 1028.14 1027.58 1027.12 1027.46
1030.83 1031.80 1032.68 1033.42 1034.02 1034.66 1034.96 1035.06 1035.37 1035.55 1035.35 1035.32 1035.23 1034.93 1034.58 1034.25 1034.12 1033.97 1033.85 1033.67 1033.37 1033.08 1033.25 1033.69 1033.61 1033.55 1033.52 1033.43 1033.13 1032.85 1032.50 1032.05 1031.53 1031.08 1030.77 1030.47 1030.35 1030.12 1029.65 1029.41 1029.46 1029.33 1029.13
1030.61 1031.30 1032.06 1032.90 1033.59 1034.27 1034.54 1034.90 1035.28 1035.66 1035.96 1036.07 1035.39 1035.15 1034.92 1034.74 1034.57 1034.41 1034.45 1034.54 1034.54 1034.48 1034.48 1034.56 1034.79 1034.99 1034.90 1034.74 1034.58 1034.43 1034.16 1033.69 1033.13 1032.95 1032.60 1032.48 1032.09 1031.88 1031.61 1031.55 1031.42 1031.24 1030.89
1030.33 1031.00 1031.59 1032.32 1033.02 1033.60 1034.17 1034.74 1035.06 1035.31 1035.78 1035.81 1035.76 1035.64 1035.49 1035.16 1035.20 1035.17 1035.15 1035.28 1035.55 1035.70 1035.82 1035.81 1035.74 1035.62 1035.59 1035.71 1035.81 1035.58 1035.39 1035.12 1034.69 1034.21 1034.00 1033.75 1033.41 1033.15 1033.13 1033.11 1032.91 1032.54 1032.17
1030.12 1030.76 1031.53 1032.28 1033.02 1033.53 1034.02 1034.40 1034.85 1035.30 1035.60 1035.70 1035.88 1035.81 1035.97 1035.92 1036.13 1036.26 1036.23 1036.18 1036.21 1036.38 1036.54 1036.64 1036.70 1036.73 1036.66 1036.53 1036.38 1036.20 1035.73 1035.73 1035.65 1035.35 1035.17 1034.97 1034.66 1034.47 1034.43 1034.34 1034.17 1033.80 1033.59
1030.11 1030.90 1031.35 1032.04 1032.57 1033.02 1033.58 1034.18 1034.68 1035.11 1035.52 1035.92 1035.92 1036.05 1036.05 1036.31 1036.66 1036.74 1036.76 1036.72 1036.66 1036.75 1036.89 1036.91 1037.10 1037.15 1037.14 1037.16 1036.99 1036.91 1037.06 1037.36 1036.77 1036.38 1036.08 1035.96 1036.07 1035.51 1035.37 1035.27 1035.12 1034.85 1034.69
1029.91 1030.61 1031.29 1031.77 1032.29 1032.86 1033.38 1033.83 1034.34 1034.84 1035.32 1035.77 1035.92 1036.35 1036.30 1036.47 1036.47 1036.60 1036.81 1037.25 1037.10 1036.83 1036.86 1036.95 1037.08 1037.10 1037.13 1037.18 1037.31 1037.63 1037.66 1037.91 1037.88 1037.48 1036.88 1036.75 1036.58 1036.29 1036.34 1036.20 1036.09 1036.01 1035.87
1029.59 1030.31 1030.96 1031.50 1031.98 1032.56 1033.14 1033.49 1034.02 1034.34 1034.83 1035.19 1035.44 1035.96 1036.25 1036.12 1036.16 1036.38 1036.64 1037.03 1036.78 1036.88 1036.97 1037.04 1037.18 1037.30 1037.19 1037.18 1037.18 1037.33 1037.63 1037.93 1037.67 1037.72 1037.76 1037.79 1037.53 1037.41 1037.09 1037.06 1036.89 1036.91 1036.85
1029.15 1029.87 1030.46 1031.02 1031.55 1032.02 1032.41 1032.92 1033.33 1033.74 1034.27 1034.62 1035.01 1035.45 1035.64 1035.82 1036.09 1036.09 1036.30 1036.72 1036.68 1036.93 1036.84 1036.91 1037.08 1037.24 1037.36 1037.56 1037.46 1037.49 1037.57 1037.70 1037.66 1037.66 1037.65 1037.78 1037.88 1037.85 1037.85 1037.75 1037.82 1037.93 1038.05
1028.53 1029.25 1029.80 1030.30 1030.76 1031.28 1031.86 1032.33 1032.78 1033.03 1033.44 1033.86 1034.47 1034.86 1034.98 1035.29 1035.68 1035.76 1035.91 1035.96 1036.13 1036.43 1036.42 1036.72 1036.77 1036.76 1036.91 1037.13 1037.30 1037.38 1037.54 1037.69 1037.72 1037.70 1037.69 1037.65 1037.83 1037.91 1037.96 1037.97 1038.17 1038.28 1038.22
1027.89 1028.48 1028.99 1029.59 1030.10 1030.58 1031.01 1031.52 1031.84 1032.18 1032.62 1033.02 1033.48 1033.83 1034.17 1034.47 1034.61 1034.95 1035.14 1035.34 1035.59 1035.89 1036.11 1036.22 1036.28 1036.38 1036.55 1036.71 1036.86 1037.06 1037.34 1037.49 1037.64 1037.69 1037.72 1037.67 1037.93 1038.06 1038.12 1038.15 1038.36 1038.40 1038.39
Wind_Speed
4 5 6 6 6 6 5 4 3 5 6 9 9 9 11 12 13 12 13 14 14 14 14 14 15 15 10 9 7 6 5 5 2 1 2 3 5 7 2 5 10 12 11
4 5 5 6 6 6 6 6 6 6 6 8 9 9 10 12 12 12 14 15 15 14 15 16 16 12 14 12 9 10 8 7 1 3 5 7 8 3 4 5 13 13 15
5 5 5 5 6 6 6 6 6 6 7 7 10 11 11 12 12 12 13 13 15 14 14 15 16 16 16 12 12 11 9 8 8 5 5 5 6 5 5 9 15 15 13
5 5 5 5 5 5 5 6 6 6 6 7 10 11 11 12 13 11 13 13 14 14 15 15 16 16 17 15 13 13 11 10 10 9 5 5 6 4 5 4 12 12 11
5 6 5 5 5 6 6 6 6 6 6 7 10 11 12 13 12 15 13 13 15 15 16 16 16 23 26 22 12 15 15 11 10 9 10 6 7 5 6 4 8 12 8
5 6 5 6 5 6 6 6 6 6 6 7 10 11 13 11 23 24 18 13 14 15 17 16 15 21 20 22 24 23 22 14 16 11 10 9 9 4 5 4 3 10 6
6 6 6 5 5 6 6 6 6 6 6 7 9 11 12 14 24 23 22 11 12 14 16 16 15 14 19 15 18 21 24 28 19 12 11 13 4 7 7 9 8 6 5
6 6 5 5 6 6 6 6 7 5 6 7 10 11 10 12 23 24 20 12 12 14 15 18 17 17 21 17 15 16 17 17 17 13 13 12 12 10 8 4 6 9 7
6 6 5 5 6 6 6 6 6 6 5 8 8 10 11 12 24 23 16 11 12 14 14 18 19 19 28 27 17 17 17 17 16 22 21 24 31 32 23 8 10 4 5
6 6 5 6 6 6 6 6 5 6 7 6 9 9 14 11 22 24 17 9 12 11 13 15 28 24 29 29 18 16 18 15 15 17 18 23 25 23 29 19 11 10 4
6 6 7 7 7 6 6 5 5 6 7 6 8 8 10 13 13 23 23 10 8 9 11 11 13 28 30 30 28 18 17 12 16 14 14 14 15 17 14 15 15 11 8
7 8 7 7 6 6 7 6 6 6 7 7 7 7 8 10 18 19 22 22 17 10 11 9 12 27 28 30 21 27 25 16 12 13 13 14 14 13 13 13 15 15 13
8 8 8 8 6 5 6 5 5 5 5 5 6 6 7 8 8 18 19 21 21 10 10 16 22 24 25 20 28 26 21 13 13 14 13 12 11 10 11 12 13 14 17
9 9 7 8 7 5 4 4 4 4 5 5 5 6 5 7 8 7 7 8 15 12 10 10 12 15 18 16 15 16 13 12 13 12 10 9 9 12 13 11 12 10 13
9 8 7 6 6 5 6 4 5 4 4 3 2 2 3 6 8 12 12 8 8 9 7 8 11 12 13 12 12 13 12 12 12 11 11 12 12 12 13 11 12 12 14
9 7 6 6 4 4 5 4 9 7 10 10 7 4 4 12 14 16 17 18 18 16 8 10 10 10 11 11 11 11 12 14 12 11 11 11 12 12 11 11 11 13 13
8 8 6 6 5 5 4 4 4 2 5 6 8 10 12 11 13 14 15 17 17 12 10 9 9 9 9 9 9 10 10 10 10 11 11 11 11 11 12 12 11 11 12
7 9 8 6 6 5 4 4 3 3 2 1 3 4 8 12 13 12 11 8 8 10 8 8 8 7 8 8 8 8 8 9 10 10 10 10 10 10 10 11 11 11 11
7 5 6 5 5 6 5 4 3 3 3 2 1 3 3 10 12 13 11 5 4 5 5 6 5 5 6 6 6 6 7 8 8 8 9 9 9 9 10 9 9 12 12
6 8 7 6 6 5 5 5 4 3 3 3 2 2 1 3 3 2 3 3 3 3 3 4 4 4 4 4 5 4 6 8 7 7 8 8 7 8 9 9 9 8 9
6 6 8 6 6 6 5 5 4 4 4 3 3 2 3 4 3 2 2 2 3 3 3 3 3 3 3 3 4 4 5 3 5 6 6 6 5 7 7 7 7 8 8
7 7 7 6 5 5 5 4 4 4 4 3 2 2 3 2 3 3 3 3 2 3 3 3 2 2 2 3 3 3 4 4 4 4 5 5 5 6 6 6 7 7 7
8 8 6 5 5 5 4 4 4 4 4 4 4 3 2 3 4 4 4 4 3 3 2 3 3 2 1 2 2 3 4 3 1 1 3 3 4 4 4 5 6 6 6
8 8 8 6 6 6 6 6 5 6 6 6 5 4 4 4 4 5 4 3 3 3 3 4 3 5 4 2 2 2 2 1 1 2 3 3 3 3 3 3 3 4 3
8 8 8 8 8 7 6 6 6 6 6 6 6 5 5 5 4 5 5 5 5 4 5 4 4 6 7 7 5 5 4 4 3 1 2 4 4 3 3 2 2 2 3
9 9 8 7 7 7 7 7 7 7 8 7 7 7 7 7 6 6 6 6 5 5 5 4 6 9 9 7 7 7 7 6 4 3 1 2 3 2 2 2 3 1 2
Wind_Direction
84 70 57 40 31 28 13 15 344 340 349 357 354 341 353 353 353 354 3 7 358 355 351 349 345 345 346 344 350 359 11 11 4 2 343 12 72 92 152 184 170 165 169
103 78 60 46 32 29 11 12 23 359 2 2 354 349 353 351 356 3 8 9 359 356 354 351 352 353 358 359 357 4 6 9 318 23 16 27 59 39 323 216 167 162 167
94 85 60 41 36 27 23 24 29 19 19 6 2 358 350 348 359 11 13 9 3 360 359 355 355 358 3 2 7 11 11 9 18 49 51 14 48 22 337 135 149 149 153
99 87 71 43 44 34 31 36 36 25 27 15 6 1 355 354 12 14 11 9 7 5 4 2 4 7 7 7 14 16 14 20 23 39 44 43 39 359 352 102 126 137 134
105 87 76 60 54 40 33 38 39 32 31 25 10 9 8 15 18 19 13 10 9 9 11 8 7 14 10 14 19 23 25 29 33 35 40 35 32 11 5 316 101 99 66
106 95 80 67 53 38 33 41 44 35 26 29 19 13 18 18 22 23 21 13 11 11 16 10 9 13 8 12 17 27 34 29 38 36 35 42 28 345 319 343 61 123 124
105 94 81 71 53 39 35 39 51 43 32 23 21 15 16 21 23 23 17 15 18 15 16 14 12 15 13 15 20 28 32 34 35 37 40 36 9 358 348 32 45 63 70
100 95 86 74 57 44 42 40 45 36 32 30 28 18 12 18 22 23 15 15 22 26 22 24 20 19 21 22 26 31 32 32 25 33 39 40 39 30 27 44 64 91 94
106 99 97 85 63 50 46 40 39 50 38 36 23 22 17 6 22 24 19 17 20 26 26 27 27 26 26 26 29 32 33 27 22 32 39 43 46 45 41 50 40 65 67
118 111 103 92 74 62 58 48 42 49 53 37 33 24 18 10 15 25 29 18 21 23 24 28 31 31 32 33 34 27 35 17 15 21 28 34 38 41 43 42 28 45 42
112 107 92 87 81 70 63 47 52 57 56 34 31 13 14 13 12 24 30 28 23 26 27 21 27 31 34 36 36 33 33 24 28 31 33 34 36 39 40 41 39 41 49
115 101 94 84 70 68 70 51 52 57 57 38 24 17 8 6 10 20 30 37 32 36 31 25 26 34 36 35 36 35 35 35 36 39 36 31 30 29 28 34 42 45 47
117 105 97 87 77 65 74 63 62 49 52 48 41 24 7 359 358 11 28 33 34 36 33 35 34 33 34 33 33 34 34 31 38 41 36 32 32 34 36 40 40 49 52
118 116 112 108 91 72 69 66 67 58 62 58 49 31 4 359 4 8 22 24 27 32 21 26 32 36 39 34 31 33 31 30 37 39 31 33 33 39 39 35 45 41 49
131 130 118 108 115 103 78 69 69 49 73 82 50 1 13 12 26 40 39 34 32 24 25 36 34 30 34 30 30 29 29 32 33 35 31 35 35 39 37 32 41 46 54
137 139 136 136 127 108 103 85 80 90 76 77 75 45 342 40 59 57 52 48 43 35 42 41 36 32 36 29 29 26 27 28 26 32 35 36 38 38 39 36 42 48 49
146 143 143 140 143 137 141 138 130 17 51 53 50 54 51 54 54 64 67 61 51 42 53 42 37 34 31 30 31 29 30 25 27 35 35 32 36 37 38 38 37 42 48
146 147 155 160 156 153 159 152 145 135 122 305 358 62 49 63 63 64 67 68 57 49 50 45 45 42 33 32 27 30 27 26 34 34 36 34 37 40 42 42 38 40 44
150 154 153 148 150 155 153 149 159 156 155 161 6 10 21 79 74 67 60 61 68 61 63 65 52 47 45 44 30 32 34 30 29 35 33 33 37 42 44 41 40 42 47
151 149 144 144 146 149 150 156 157 153 152 163 159 186 93 65 52 32 48 63 63 60 55 64 62 67 64 55 42 24 40 35 31 35 35 32 27 42 45 39 37 40 41
148 152 148 142 158 161 161 165 167 156 163 171 200 218 145 133 151 123 104 101 111 102 84 81 66 52 50 58 63 60 62 40 37 30 33 33 23 44 37 38 39 39 37
155 157 158 165 160 163 164 163 163 161 161 165 202 174 159 131 155 160 148 138 149 130 136 122 100 97 102 106 112 104 80 55 34 24 35 31 30 37 37 45 42 39 32
158 159 159 160 169 160 163 171 171 175 170 181 180 172 184 185 184 177 167 173 165 144 149 137 135 118 91 105 111 134 134 137 113 95 59 44 44 40 34 47 42 37 32
162 166 171 170 172 177 179 180 181 185 178 184 184 187 199 195 190 194 188 186 169 175 167 162 167 164 149 151 143 130 119 121 92 81 95 98 84 65 63 63 59 45 31
166 169 177 180 186 188 180 186 189 190 188 188 189 192 199 199 192 195 193 189 187 183 191 187 187 186 185 180 174 169 165 147 140 128 112 123 105 93 84 71 76 58 46
173 180 185 182 187 185 189 191 198 194 196 194 188 191 196 200 204 199 201 197 196 196 200 202 204 201 195 198 195 186 184 182 177 181 150 133 123 112 100 94 71 104 64